This is the latest recevied weather packets stored in our database for station/object DH1FR-13. If no packets are shown the sender has not sent any weather packets the latest 10 day(s).
| Time | Temp. | Humidity | Pressure | Rain* | Wind** | Luminosity | Snow |
|---|---|---|---|---|---|---|---|
| 1777005601 | -1.11° C | 96% | 1025.3 hPa | 0 mm | 0 m/s | - | - |
| 1777005000 | -1.11° C | 96% | 1025.3 hPa | 0 mm | 0 m/s | - | - |
| 1777004401 | -1.11° C | 96% | 1025.5 hPa | 0 mm | 0 m/s | - | - |
| 1777003800 | -1.11° C | 95% | 1025.7 hPa | 0 mm | 0 m/s | - | - |
| 1777003201 | -1.11° C | 95% | 1025.8 hPa | 0 mm | 0 m/s | - | - |
| 1777002601 | -0.56° C | 95% | 1025.5 hPa | 0 mm | 0 m/s | - | - |
| 1777002001 | -0.56° C | 95% | 1025.5 hPa | 0 mm | 0 m/s | - | - |
| 1777001401 | -0.56° C | 95% | 1025.3 hPa | 0 mm | 0 m/s | - | - |
| 1777000201 | 0° C | 94% | 1025.7 hPa | 0 mm | 0 m/s | - | - |
| 1776999600 | 0° C | 94% | 1025.8 hPa | 0 mm | 0 m/s | - | - |
| 1776999001 | 0° C | 94% | 1025.9 hPa | 0 mm | 0 m/s | - | - |
| 1776998401 | 0° C | 93% | 1025.9 hPa | 0 mm | 0 m/s | - | - |
| 1776997801 | 0.56° C | 93% | 1026.1 hPa | 0 mm | 0 m/s | - | - |
| 1776997201 | 0.56° C | 93% | 1026 hPa | 0 mm | 0 m/s | - | - |
| 1776996601 | 0.56° C | 92% | 1026.2 hPa | 0 mm | 0 m/s | - | - |
| 1776996001 | 0.56° C | 92% | 1026.1 hPa | 0 mm | 0 m/s | - | - |
| 1776995401 | 0.56° C | 92% | 1026.4 hPa | 0 mm | 0 m/s | - | - |
| 1776994801 | 1.11° C | 91% | 1026.2 hPa | 0 mm | 0 m/s | - | - |
| 1776994200 | 1.11° C | 91% | 1026.2 hPa | 0 mm | 0 m/s | - | - |
| 1776993601 | 1.67° C | 91% | 1026.2 hPa | 0 mm | 0 m/s | - | - |
| 1776993001 | 1.67° C | 90% | 1026.3 hPa | 0 mm | 0 m/s | - | - |
| 1776992401 | 1.67° C | 90% | 1026.2 hPa | 0 mm | 0 m/s | - | - |
| 1776991801 | 1.67° C | 90% | 1026.3 hPa | 0 mm | 0 m/s | - | - |
| 1776990601 | 2.22° C | 88% | 1026.5 hPa | 0 mm | 0 m/s | - | - |
| 1776990000 | 2.78° C | 87% | 1026.4 hPa | 0 mm | 0 m/s | - | - |
* Rain latest hour (hover to see other rain measurements)
** Current wind speed in m/s (hover to see current wind gust speed)